Time,TemperatureF,DewpointF,PressureIn,WindDirection,WindDirectionDegrees,WindSpeedMPH,WindSpeedGustMPH,Humidity,HourlyPrecipIn,Conditions,Clouds,dailyrainin,SolarRadiationWatts/m^2,SoftwareType,DateUTC
2013-04-20 00:10:00,46.5,43.0,30.17,NNW,330,0.0,0.0,87,0.00,,,0.05,0,weatherlink.com 1.10,2013-04-20 04:10:00,
2013-04-20 00:25:00,46.1,43.0,30.17,NNW,330,0.0,0.0,88,0.00,,,0.05,0,weatherlink.com 1.10,2013-04-20 04:25:00,
2013-04-20 00:40:00,45.9,43.0,30.18,NNW,330,0.0,0.0,89,0.00,,,0.05,0,weatherlink.com 1.10,2013-04-20 04:40:00,
2013-04-20 00:55:00,45.6,43.0,30.18,NNW,330,0.0,0.0,89,0.00,,,0.05,0,weatherlink.com 1.10,2013-04-20 04:55:00,
2013-04-20 01:10:00,45.5,43.0,30.18,NNW,330,0.0,0.0,90,0.00,,,0.00,0,weatherlink.com 1.10,2013-04-20 05:10:00,
2013-04-20 01:25:00,45.4,43.0,30.18,NNW,330,0.0,0.0,91,0.00,,,0.00,0,weatherlink.com 1.10,2013-04-20 05:25:00,
2013-04-20 01:40:00,45.3,43.0,30.18,NNW,330,0.0,0.0,91,0.00,,,0.00,0,weatherlink.com 1.10,2013-04-20 05:40:00,
2013-04-20 01:55:00,45.1,43.0,30.19,NNW,330,0.0,0.0,92,0.00,,,0.00,0,weatherlink.com 1.10,2013-04-20 05:55:00,
2013-04-20 02:10:00,45.0,43.0,30.19,NNW,330,0.0,0.0,92,0.00,,,0.00,0,weatherlink.com 1.10,2013-04-20 06:10:00,
2013-04-20 02:25:00,44.7,43.0,30.19,NNW,330,0.0,0.0,93,0.00,,,0.00,0,weatherlink.com 1.10,2013-04-20 06:25:00,
2013-04-20 02:40:00,44.5,43.0,30.19,NNW,330,0.0,0.0,93,0.00,,,0.00,0,weatherlink.com 1.10,2013-04-20 06:40:00,
2013-04-20 02:55:00,44.1,42.0,30.19,NNW,330,0.0,0.0,93,0.00,,,0.00,0,weatherlink.com 1.10,2013-04-20 06:55:00,
2013-04-20 03:10:00,43.8,42.0,30.18,NNW,330,0.0,0.0,93,0.00,,,0.00,0,weatherlink.com 1.10,2013-04-20 07:10:00,
2013-04-20 03:25:00,43.7,42.0,30.18,NNW,331,0.0,0.0,93,0.00,,,0.00,0,weatherlink.com 1.10,2013-04-20 07:25:00,
2013-04-20 03:40:00,43.4,42.0,30.18,NNW,330,0.0,0.0,94,0.00,,,0.00,0,weatherlink.com 1.10,2013-04-20 07:40:00,
2013-04-20 03:55:00,43.2,42.0,30.18,NNW,331,0.0,0.0,94,0.00,,,0.00,0,weatherlink.com 1.10,2013-04-20 07:55:00,
2013-04-20 04:10:00,42.8,41.0,30.18,NNW,330,0.0,0.0,94,0.00,,,0.00,0,weatherlink.com 1.10,2013-04-20 08:10:00,
2013-04-20 04:25:00,42.6,41.0,30.18,NNW,330,0.0,0.0,94,0.00,,,0.00,0,weatherlink.com 1.10,2013-04-20 08:25:00,
2013-04-20 04:40:00,42.4,41.0,30.18,NNW,331,0.0,0.0,94,0.00,,,0.00,0,weatherlink.com 1.10,2013-04-20 08:40:00,
2013-04-20 04:55:00,42.1,41.0,30.18,NNW,330,0.0,0.0,94,0.00,,,0.00,0,weatherlink.com 1.10,2013-04-20 08:55:00,
2013-04-20 05:10:00,41.9,41.0,30.18,NNW,330,0.0,0.0,95,0.00,,,0.00,0,weatherlink.com 1.10,2013-04-20 09:10:00,
2013-04-20 05:25:00,41.6,40.0,30.18,NNW,330,0.0,0.0,94,0.00,,,0.00,0,weatherlink.com 1.10,2013-04-20 09:25:00,
2013-04-20 05:40:00,41.3,40.0,30.18,NNW,330,0.0,0.0,95,0.00,,,0.00,0,weatherlink.com 1.10,2013-04-20 09:40:00,
2013-04-20 05:56:00,41.1,40.0,30.19,NNW,330,0.0,0.0,95,0.00,,,0.00,0,weatherlink.com 1.10,2013-04-20 09:56:00,
2013-04-20 06:11:00,40.9,40.0,30.19,NNW,331,0.0,0.0,95,0.00,,,0.00,0,weatherlink.com 1.10,2013-04-20 10:11:00,
2013-04-20 06:26:00,40.7,39.0,30.19,NNW,330,0.0,0.0,95,0.00,,,0.00,0,weatherlink.com 1.10,2013-04-20 10:26:00,
2013-04-20 06:41:00,40.5,39.0,30.19,NNW,330,0.0,0.0,95,0.00,,,0.00,0,weatherlink.com 1.10,2013-04-20 10:41:00,
2013-04-20 06:56:00,40.2,39.0,30.20,NNW,331,0.0,0.0,95,0.00,,,0.00,0,weatherlink.com 1.10,2013-04-20 10:56:00,
2013-04-20 07:11:00,40.2,39.0,30.20,NNW,330,0.0,0.0,95,0.00,,,0.00,0,weatherlink.com 1.10,2013-04-20 11:11:00,
2013-04-20 07:26:00,40.3,39.0,30.20,NNW,330,0.0,0.0,95,0.00,,,0.00,0,weatherlink.com 1.10,2013-04-20 11:26:00,
2013-04-20 07:41:00,40.3,39.0,30.20,NNW,330,0.0,0.0,95,0.00,,,0.00,11,weatherlink.com 1.10,2013-04-20 11:41:00,
2013-04-20 07:56:00,40.1,39.0,30.21,NNW,330,0.0,0.0,96,0.00,,,0.00,21,weatherlink.com 1.10,2013-04-20 11:56:00,
2013-04-20 08:11:00,40.0,39.0,30.22,NNW,330,0.0,0.0,96,0.00,,,0.00,76,weatherlink.com 1.10,2013-04-20 12:11:00,
2013-04-20 08:26:00,41.0,40.0,30.23,NNW,330,0.0,0.0,96,0.00,,,0.00,130,weatherlink.com 1.10,2013-04-20 12:26:00,
2013-04-20 08:41:00,42.9,42.0,30.23,NNW,330,0.0,0.0,97,0.00,,,0.00,188,weatherlink.com 1.10,2013-04-20 12:41:00,
2013-04-20 08:56:00,45.9,45.0,30.24,ENE,72,2.0,2.0,97,0.00,,,0.00,243,weatherlink.com 1.10,2013-04-20 12:56:00,
2013-04-20 09:11:00,49.1,47.0,30.24,East,93,0.0,1.0,91,0.00,,,0.00,297,weatherlink.com 1.10,2013-04-20 13:11:00,
2013-04-20 09:26:00,50.9,46.0,30.24,East,84,1.0,3.0,83,0.00,,,0.00,350,weatherlink.com 1.10,2013-04-20 13:26:00,
2013-04-20 09:41:00,52.2,45.0,30.24,East,86,1.0,5.0,77,0.00,,,0.00,417,weatherlink.com 1.10,2013-04-20 13:41:00,
2013-04-20 09:56:00,53.3,45.0,30.25,NE,53,2.0,7.0,74,0.00,,,0.00,478,weatherlink.com 1.10,2013-04-20 13:56:00,
2013-04-20 10:11:00,54.7,45.0,30.25,East,94,1.0,7.0,70,0.00,,,0.00,533,weatherlink.com 1.10,2013-04-20 14:11:00,
2013-04-20 10:26:00,56.0,45.0,30.25,East,101,2.0,5.0,67,0.00,,,0.00,589,weatherlink.com 1.10,2013-04-20 14:26:00,
2013-04-20 10:42:00,57.2,45.0,30.25,ENE,73,2.0,9.0,63,0.00,,,0.00,642,weatherlink.com 1.10,2013-04-20 14:42:00,
2013-04-20 10:57:00,58.4,44.0,30.25,ESE,109,3.0,6.0,60,0.00,,,0.00,693,weatherlink.com 1.10,2013-04-20 14:57:00,
2013-04-20 11:12:00,58.9,44.0,30.25,East,81,3.0,11.0,58,0.00,,,0.00,742,weatherlink.com 1.10,2013-04-20 15:12:00,
2013-04-20 11:27:00,59.9,44.0,30.25,East,97,2.0,6.0,56,0.00,,,0.00,782,weatherlink.com 1.10,2013-04-20 15:27:00,
2013-04-20 11:42:00,60.9,42.0,30.25,ESE,109,3.0,11.0,51,0.00,,,0.00,824,weatherlink.com 1.10,2013-04-20 15:42:00,
2013-04-20 11:57:00,61.9,41.0,30.25,East,87,2.0,11.0,46,0.00,,,0.00,861,weatherlink.com 1.10,2013-04-20 15:57:00,
2013-04-20 12:12:00,61.8,42.0,30.24,ESE,103,4.0,11.0,49,0.00,,,0.00,893,weatherlink.com 1.10,2013-04-20 16:12:00,
2013-04-20 12:27:00,63.3,44.0,30.23,ESE,117,7.0,9.0,49,0.00,,,0.00,919,weatherlink.com 1.10,2013-04-20 16:27:00,
2013-04-20 12:42:00,63.4,40.0,30.23,ESE,112,5.0,10.0,43,0.00,,,0.00,942,weatherlink.com 1.10,2013-04-20 16:42:00,
2013-04-20 12:57:00,64.4,40.0,30.23,NE,49,3.0,8.0,41,0.00,,,0.00,969,weatherlink.com 1.10,2013-04-20 16:57:00,
2013-04-20 13:12:00,64.5,44.0,30.23,SE,145,4.0,10.0,48,0.00,,,0.00,981,weatherlink.com 1.10,2013-04-20 17:12:00,
2013-04-20 13:27:00,65.0,44.0,30.22,East,80,1.0,4.0,46,0.00,,,0.00,993,weatherlink.com 1.10,2013-04-20 17:27:00,
2013-04-20 13:42:00,65.3,43.0,30.20,SE,135,4.0,7.0,45,0.00,,,0.00,997,weatherlink.com 1.10,2013-04-20 17:42:00,
2013-04-20 13:57:00,65.2,43.0,30.20,East,97,3.0,8.0,44,0.00,,,0.00,1004,weatherlink.com 1.10,2013-04-20 17:57:00,
2013-04-20 14:12:00,65.7,45.0,30.19,ESE,120,1.0,8.0,48,0.00,,,0.00,998,weatherlink.com 1.10,2013-04-20 18:12:00,
2013-04-20 14:27:00,65.3,47.0,30.19,ESE,109,3.0,7.0,51,0.00,,,0.00,995,weatherlink.com 1.10,2013-04-20 18:27:00,
2013-04-20 14:42:00,66.2,45.0,30.18,ESE,111,3.0,8.0,46,0.00,,,0.00,986,weatherlink.com 1.10,2013-04-20 18:42:00,
2013-04-20 14:57:00,65.9,45.0,30.17,ESE,119,3.0,4.0,48,0.00,,,0.00,974,weatherlink.com 1.10,2013-04-20 18:57:00,
2013-04-20 15:12:00,66.3,46.0,30.17,SE,131,4.0,7.0,48,0.00,,,0.00,953,weatherlink.com 1.10,2013-04-20 19:12:00,
2013-04-20 15:27:00,67.4,45.0,30.16,East,96,1.0,7.0,45,0.00,,,0.00,932,weatherlink.com 1.10,2013-04-20 19:27:00,
2013-04-20 15:42:00,66.6,45.0,30.16,ENE,75,1.0,8.0,46,0.00,,,0.00,904,weatherlink.com 1.10,2013-04-20 19:42:00,
2013-04-20 15:58:00,66.7,46.0,30.15,SE,139,2.0,9.0,47,0.00,,,0.00,875,weatherlink.com 1.10,2013-04-20 19:58:00,
2013-04-20 16:13:00,67.6,45.0,30.14,ESE,123,2.0,11.0,44,0.00,,,0.00,840,weatherlink.com 1.10,2013-04-20 20:13:00,
2013-04-20 16:28:00,68.6,49.0,30.14,NNW,342,1.0,8.0,50,0.00,,,0.00,802,weatherlink.com 1.10,2013-04-20 20:28:00,
2013-04-20 16:43:00,67.6,44.0,30.13,ENE,73,0.0,7.0,43,0.00,,,0.00,765,weatherlink.com 1.10,2013-04-20 20:43:00,
2013-04-20 16:58:00,68.4,43.0,30.12,ENE,63,3.0,5.0,40,0.00,,,0.00,719,weatherlink.com 1.10,2013-04-20 20:58:00,
2013-04-20 17:13:00,68.5,46.0,30.12,ENE,71,4.0,7.0,45,0.00,,,0.00,670,weatherlink.com 1.10,2013-04-20 21:13:00,
2013-04-20 17:28:00,68.3,47.0,30.11,SE,142,0.0,10.0,46,0.00,,,0.00,622,weatherlink.com 1.10,2013-04-20 21:28:00,
2013-04-20 17:43:00,68.8,45.0,30.11,ENE,77,4.0,7.0,42,0.00,,,0.00,568,weatherlink.com 1.10,2013-04-20 21:43:00,
2013-04-20 17:58:00,68.7,45.0,30.11,SE,124,0.0,6.0,42,0.00,,,0.00,515,weatherlink.com 1.10,2013-04-20 21:58:00,
2013-04-20 18:13:00,68.3,46.0,30.11,SSE,148,0.0,6.0,45,0.00,,,0.00,459,weatherlink.com 1.10,2013-04-20 22:13:00,
2013-04-20 18:28:00,68.6,47.0,30.11,SE,140,0.0,5.0,47,0.00,,,0.00,404,weatherlink.com 1.10,2013-04-20 22:28:00,
2013-04-20 18:43:00,68.5,45.0,30.10,NW,311,0.0,4.0,43,0.00,,,0.00,345,weatherlink.com 1.10,2013-04-20 22:43:00,
2013-04-20 18:58:00,67.9,47.0,30.10,ESE,115,1.0,4.0,47,0.00,,,0.00,283,weatherlink.com 1.10,2013-04-20 22:58:00,
2013-04-20 19:13:00,67.5,46.0,30.10,SE,133,0.0,2.0,47,0.00,,,0.00,225,weatherlink.com 1.10,2013-04-20 23:13:00,
2013-04-20 19:28:00,67.0,46.0,30.09,ESE,111,2.0,5.0,47,0.00,,,0.00,158,weatherlink.com 1.10,2013-04-20 23:28:00,
2013-04-20 19:43:00,66.2,47.0,30.10,ESE,111,1.0,3.0,51,0.00,,,0.00,98,weatherlink.com 1.10,2013-04-20 23:43:00,
2013-04-20 19:58:00,65.3,48.0,30.10,SE,126,0.0,2.0,53,0.00,,,0.00,51,weatherlink.com 1.10,2013-04-20 23:58:00,
2013-04-20 20:13:00,64.1,47.0,30.10,SE,126,0.0,3.0,55,0.00,,,0.00,23,weatherlink.com 1.10,2013-04-21 00:13:00,
2013-04-20 20:28:00,62.3,50.0,30.11,SE,126,0.0,0.0,65,0.00,,,0.00,9,weatherlink.com 1.10,2013-04-21 00:28:00,
2013-04-20 20:43:00,59.9,50.0,30.11,SE,126,0.0,0.0,71,0.00,,,0.00,0,weatherlink.com 1.10,2013-04-21 00:43:00,
2013-04-20 20:58:00,58.3,50.0,30.11,SE,126,0.0,0.0,74,0.00,,,0.00,0,weatherlink.com 1.10,2013-04-21 00:58:00,
2013-04-20 21:13:00,57.3,50.0,30.12,SE,126,0.0,0.0,77,0.00,,,0.00,0,weatherlink.com 1.10,2013-04-21 01:13:00,
2013-04-20 21:28:00,56.4,48.0,30.12,SE,126,0.0,0.0,74,0.00,,,0.00,0,weatherlink.com 1.10,2013-04-21 01:28:00,
2013-04-20 21:43:00,56.0,48.0,30.13,SE,126,0.0,0.0,75,0.00,,,0.00,0,weatherlink.com 1.10,2013-04-21 01:43:00,
2013-04-20 21:58:00,55.2,48.0,30.14,SE,126,0.0,0.0,78,0.00,,,0.00,0,weatherlink.com 1.10,2013-04-21 01:58:00,
2013-04-20 22:13:00,54.6,49.0,30.15,SE,126,0.0,0.0,80,0.00,,,0.00,0,weatherlink.com 1.10,2013-04-21 02:13:00,
2013-04-20 22:28:00,54.2,49.0,30.16,SE,126,0.0,0.0,83,0.00,,,0.00,0,weatherlink.com 1.10,2013-04-21 02:28:00,
2013-04-20 22:43:00,54.1,49.0,30.17,SE,126,0.0,0.0,84,0.00,,,0.00,0,weatherlink.com 1.10,2013-04-21 02:43:00,
2013-04-20 22:58:00,53.1,49.0,30.17,SE,126,0.0,0.0,86,0.00,,,0.00,0,weatherlink.com 1.10,2013-04-21 02:58:00,
2013-04-20 23:13:00,52.2,49.0,30.17,SE,126,0.0,0.0,88,0.00,,,0.00,0,weatherlink.com 1.10,2013-04-21 03:13:00,
2013-04-20 23:28:00,51.8,49.0,30.17,SE,126,0.0,0.0,90,0.00,,,0.00,0,weatherlink.com 1.10,2013-04-21 03:28:00,
2013-04-20 23:43:00,51.8,49.0,30.17,SE,126,0.0,0.0,91,0.00,,,0.00,0,weatherlink.com 1.10,2013-04-21 03:43:00,
2013-04-20 23:58:00,51.1,49.0,30.17,SE,126,0.0,0.0,91,0.00,,,0.00,0,weatherlink.com 1.10,2013-04-21 03:58:00,